,

(GMT )
Al Udeid

Weather History for KQIR - May, 2013

Change the Weather History Date:

Thursday, May 16, 2013

  Actual Average Record
Temperature  
Mean Temperature 93 °F -  
Max Temperature 108 °F - - ()
Min Temperature 78 °F - - ()
Cooling Degree Days 28    
Growing Degree Days 43 (Base 50)    
Moisture  
Dew Point 48 °F    
Average Humidity 29    
Maximum Humidity 71    
Minimum Humidity 6    
Precipitation  
Precipitation 0.00 in - - ()
Sea Level Pressure  
Sea Level Pressure 29.67 in    
Wind  
Wind Speed 7 mph ()    
Max Wind Speed 16 mph    
Max Gust Speed -    
Visibility 6.2 miles    
Events      
T = Trace of Precipitation, MM = Missing Value Source: Averaged Metar Reports

Daily Weather History Graph

Daily Weather History Graph

Search for Another Location

Airport or City:

Trip Planner

Search our weather history database for the weather conditions in past years. The results will help you decide how hot, cold, wet, or windy it might be!

Date:

Astronomy

May. 16, 2013 Rise Set
Actual Time 4:49 AM AST 6:12 PM AST
Civil Twilight 4:24 AM AST 6:37 PM AST
Nautical Twilight 3:55 AM AST 7:07 PM AST
Astronomical Twilight 3:24 AM AST 7:38 PM AST
Moon 9:51 AM AST (5/16) 11:06 PM AST (5/16)
Length of Visible Light 14h 12m
Length of Day
13h 23m
Waxing Crescent, 33% of the Moon is Illuminated
May 16
Waxing Crescent
May 18
First Quarter
May 25
Full
May 31
Last Quarter
Jun 8
New

Hourly Weather History & Observations

Time (AST) Temp. Heat Index Dew Point Humidity Pressure Visibility Wind Dir Wind Speed Gust Speed Precip Events Conditions
12:55 AM 82.8 °F 84.5 °F 65.1 °F 55% 29.68 in 6.2 mi ESE 3.5 mph - N/A   Clear
1:55 AM 79.5 °F - 66.7 °F 65% 29.67 in 6.2 mi SSE 4.6 mph - N/A   Clear
2:55 AM 78.4 °F - 68.2 °F 71% 29.68 in 6.2 mi SSE 3.5 mph - N/A   Clear
3:55 AM 78.4 °F - 67.6 °F 69% 29.68 in 6.2 mi SSE 3.5 mph - N/A   Clear
4:55 AM 78.4 °F - 65.8 °F 65% 29.68 in 6.2 mi SSE 4.6 mph - N/A   Clear
5:55 AM 78.1 °F - 66.4 °F 67% 29.69 in 6.2 mi South 4.6 mph - N/A   Clear
6:55 AM 84.2 °F 86.3 °F 66.0 °F 54% 29.70 in 6.2 mi South 3.5 mph - N/A   Clear
7:55 AM 91.9 °F 90.0 °F 55.4 °F 29% 29.71 in 6.2 mi SSE 3.5 mph - N/A   Clear
8:55 AM 100.8 °F - 42.6 °F 14% 29.71 in 6.2 mi SSE 9.2 mph - N/A   Clear
9:55 AM 104.7 °F - 34.9 °F 9% 29.71 in 6.2 mi SE 13.8 mph - N/A   Clear
10:18 AM 105.8 °F - 32.0 °F 8% 29.70 in - North - - N/A   Clear
10:55 AM 107.4 °F - 28.0 °F 6% 29.70 in 6.2 mi SE 13.8 mph - N/A   Partly Cloudy
11:55 AM 108.3 °F - 30.2 °F 7% 29.68 in 6.2 mi SE 12.7 mph - N/A   Mostly Cloudy
12:55 PM 108.3 °F - 32.4 °F 7% 29.67 in 6.2 mi SE 15.0 mph - N/A   Clear
1:55 PM 108.1 °F - 32.9 °F 7% 29.65 in 6.2 mi SE 16.1 mph - N/A   Clear
2:55 PM 107.4 °F - 31.6 °F 7% 29.65 in 6.2 mi SE 16.1 mph - N/A   Clear
3:55 PM 106.3 °F - 37.4 °F 9% 29.64 in 6.2 mi ESE 13.8 mph - N/A   Clear
4:55 PM 104.7 °F - 29.7 °F 7% 29.63 in 6.2 mi SE 13.8 mph - N/A   Clear
5:55 PM 102.0 °F - 33.8 °F 9% 29.63 in 6.2 mi SE 9.2 mph - N/A   Clear
6:55 PM 98.1 °F - 41.9 °F 14% 29.64 in 6.2 mi SE 6.9 mph - N/A   Clear
7:55 PM 93.2 °F - 44.6 °F 19% 29.66 in 6.2 mi South 6.9 mph - N/A   Clear
8:55 PM 90.1 °F - 50.5 °F 26% 29.67 in 6.2 mi South 5.8 mph - N/A   Clear
9:55 PM 89.1 °F 87.3 °F 55.4 °F 32% 29.67 in 6.2 mi South 5.8 mph - N/A   Clear
10:55 PM 86.7 °F 85.3 °F 56.1 °F 35% 29.67 in 6.2 mi SW 6.9 mph - N/A   Clear
11:55 PM 86.5 °F 85.4 °F 57.7 °F 37% 29.66 in 6.2 mi SSW 9.2 mph - N/A   Clear